Torna al catalogo

STARLINK-34653

AttivoComunicazioniVLEO
NORAD 64917·PAYLOAD·🇺🇸 United States

Lanciato Jul 26, 2025 da Cape Canaveral Space Force Station

Loading…

Prossimi Passaggi (prossime 24 ore)

TLE

AggiornatoSource: CelesTrak SupGP

Epoca: Sep 15, 2026, 03:22 UTC

1 64917C 25157P   26258.14076389 -.00044281  00000+0 -14239-2 0  2587
2 64917  53.1591 184.5265 0001387  86.6700 356.4577 15.31724575    18

Traccia STARLINK-34653 in tempo reale con AllMySat

Download on the App Store